Black River Falls, WI

7:09 AM CDT on June 26, 2017 (GMT -0500)
Black River Falls Area

Weather History for KBCK - August, 2013

Change the Weather History Date:

Friday, August 2, 2013

  Actual Average (KCMY) Record (KCMY)
Temperature  
Mean Temperature 64 °F -  
Max Temperature 80 °F 83 °F 102 °F (1988)
Min Temperature 50 °F 57 °F 43 °F (1965)
Growing Degree Days 14 (Base 50)    
Moisture  
Dew Point 52 °F    
Average Humidity 69    
Maximum Humidity 100    
Minimum Humidity 25    
Precipitation  
Precipitation 0.00 in - - ()
Sea Level Pressure  
Sea Level Pressure 29.90 in    
Wind  
Wind Speed 3 mph (NW)    
Max Wind Speed 13 mph    
Max Gust Speed 17 mph    
Visibility 8 miles    
Events Fog    
Averages and records for this station are not official NWS values.
T = Trace of Precipitation, MM = Missing Value Source: NWS Daily Summary

Daily Weather History Graph

Daily Weather History Graph

Search for Another Location

Airport or City:

Trip Planner

Search our weather history database for the weather conditions in past years. The results will help you decide how hot, cold, wet, or windy it might be!

Date:

Astronomy

Aug. 02, 2013 Rise Set
Actual Time 5:52 AM CDT 8:26 PM CDT
Civil Twilight 5:19 AM CDT 8:59 PM CDT
Nautical Twilight 4:37 AM CDT 9:40 PM CDT
Astronomical Twilight 3:50 AM CDT 10:27 PM CDT
Moon 2:11 AM CDT (8/2) 5:25 PM CDT (8/2)
Length of Visible Light 15h 39m
Length of Day
14h 34m
Waning Crescent, 15% of the Moon is Illuminated
Aug 2
Waning Crescent
Aug 6
New
Aug 14
First Quarter
Aug 20
Full
Aug 28
Last Quarter

Hourly Weather History & Observations

Time (CDT) Temp. Dew Point Humidity Pressure Visibility Wind Dir Wind Speed Gust Speed Precip Events Conditions
12:15 AM 60.8 °F 60.8 °F 100% 29.86 in 10.0 mi Calm Calm - N/A   Mostly Cloudy
12:35 AM 60.8 °F 60.8 °F 100% 29.86 in 10.0 mi Calm Calm - N/A   Overcast
12:55 AM 59.9 °F 59.9 °F 100% 29.85 in 10.0 mi Calm Calm - N/A   Scattered Clouds
1:15 AM 58.5 °F 58.5 °F 100% 29.84 in 10.0 mi Calm Calm - N/A   Clear
1:55 AM 57.6 °F 57.6 °F 100% 29.84 in 7.0 mi Calm Calm - N/A   Clear
2:15 AM 55.6 °F 55.6 °F 100% 29.84 in 1.5 mi Calm Calm - N/A   Mist
2:35 AM 56.3 °F 56.3 °F 100% 29.85 in 0.8 mi Calm Calm - N/A   Mostly Cloudy
2:55 AM 55.4 °F 55.4 °F 100% 29.85 in 1.2 mi Calm Calm - N/A   Mostly Cloudy
3:15 AM 56.3 °F 56.3 °F 100% 29.85 in 4.0 mi Calm Calm - N/A   Mostly Cloudy
3:35 AM 55.4 °F 55.4 °F 100% 29.84 in 2.0 mi Calm Calm - N/A   Scattered Clouds
3:55 AM 54.5 °F 54.5 °F 100% 29.84 in 7.0 mi Calm Calm - N/A   Clear
4:15 AM 53.6 °F 53.6 °F 100% 29.84 in 4.0 mi Calm Calm - N/A   Clear
4:35 AM 52.9 °F 52.9 °F 100% 29.84 in 4.0 mi Calm Calm - N/A   Clear
4:55 AM 52.0 °F 52.0 °F 100% 29.84 in 0.2 mi Calm Calm - N/A Fog Fog
5:15 AM 52.5 °F 52.5 °F 100% 29.84 in 0.2 mi Calm Calm - N/A Fog Fog
5:35 AM 50.9 °F 50.9 °F 100% 29.84 in 0.2 mi Calm Calm - N/A Fog Fog
5:55 AM 52.3 °F 52.3 °F 100% 29.84 in 0.2 mi Calm Calm - N/A Fog Fog
6:15 AM 51.6 °F 51.6 °F 100% 29.84 in 0.2 mi Calm Calm - N/A Fog Fog
6:35 AM 51.6 °F 51.6 °F 100% 29.85 in 0.2 mi Calm Calm - N/A Fog Fog
6:55 AM 54.1 °F 54.1 °F 100% 29.86 in 0.2 mi Calm Calm - N/A Fog Fog
7:15 AM 56.5 °F 56.5 °F 100% 29.86 in 5.0 mi South 3.5 mph - N/A   Scattered Clouds
7:35 AM 59.0 °F 59.0 °F 100% 29.86 in 10.0 mi Calm Calm - N/A   Clear
7:55 AM 61.7 °F 61.7 °F 100% 29.87 in 10.0 mi Calm Calm - N/A   Clear
8:15 AM 65.1 °F 62.8 °F 92% 29.87 in 10.0 mi South 3.5 mph - N/A   Clear
8:35 AM 67.5 °F 62.2 °F 83% 29.87 in 10.0 mi Calm Calm - N/A   Clear
8:55 AM 69.8 °F 59.4 °F 69% 29.88 in 10.0 mi WNW 3.5 mph - N/A   Clear
9:15 AM 71.6 °F 58.6 °F 64% 29.89 in 10.0 mi WNW 5.8 mph - N/A   Clear
9:35 AM 72.9 °F 57.2 °F 58% 29.88 in 10.0 mi NNW 6.9 mph - N/A   Clear
9:55 AM 74.7 °F 54.9 °F 50% 29.88 in 10.0 mi NW 5.8 mph - N/A   Clear
10:15 AM 75.6 °F 54.0 °F 47% 29.88 in 10.0 mi NNW 5.8 mph - N/A   Clear
10:35 AM 75.9 °F 52.9 °F 45% 29.89 in 10.0 mi NW 9.2 mph - N/A   Clear
10:55 AM 75.7 °F 53.6 °F 46% 29.90 in 10.0 mi NW 9.2 mph 16.1 mph N/A   Clear
11:15 AM 76.1 °F 50.9 °F 41% 29.89 in 10.0 mi NNW 11.5 mph 17.3 mph N/A   Clear
11:35 AM 76.5 °F 50.5 °F 40% 29.90 in 10.0 mi NW 5.8 mph - N/A   Clear
11:55 AM 77.0 °F 51.1 °F 40% 29.90 in 10.0 mi NW 12.7 mph 17.3 mph N/A   Clear
12:15 PM 77.4 °F 51.4 °F 40% 29.90 in 10.0 mi NW 8.1 mph - N/A   Clear
12:35 PM 78.4 °F 50.4 °F 37% 29.90 in 10.0 mi NNW 11.5 mph 17.3 mph N/A   Clear
12:55 PM 77.9 °F 49.5 °F 37% 29.89 in 10.0 mi NNW 10.4 mph 17.3 mph N/A   Clear
1:15 PM 78.6 °F 48.0 °F 34% 29.89 in 10.0 mi NNW 11.5 mph 17.3 mph N/A   Scattered Clouds
1:35 PM 78.8 °F 45.5 °F 31% 29.90 in 10.0 mi NW 8.1 mph - N/A   Scattered Clouds
1:55 PM 78.8 °F 42.6 °F 28% 29.91 in 10.0 mi NW 10.4 mph 16.1 mph N/A   Clear
2:15 PM 79.5 °F 40.5 °F 25% 29.91 in 10.0 mi NW 10.4 mph 17.3 mph N/A   Clear
2:35 PM 79.7 °F 43.5 °F 28% 29.91 in 10.0 mi NW 12.7 mph 17.3 mph N/A   Clear
2:55 PM 79.7 °F 43.0 °F 27% 29.92 in 10.0 mi NW 12.7 mph 16.1 mph N/A   Clear
3:15 PM 79.7 °F 45.1 °F 29% 29.92 in 10.0 mi NNW 9.2 mph - N/A   Clear
3:35 PM 77.9 °F 46.0 °F 32% 29.92 in 10.0 mi NW 9.2 mph - N/A   Clear
3:55 PM 77.0 °F 47.3 °F 35% 29.92 in 10.0 mi NW 8.1 mph - N/A   Scattered Clouds
4:15 PM 76.1 °F 44.8 °F 33% 29.92 in 10.0 mi NW 8.1 mph - N/A   Scattered Clouds
4:35 PM 75.4 °F 47.5 °F 37% 29.93 in 10.0 mi NW 5.8 mph - N/A   Clear
4:55 PM 75.9 °F 46.2 °F 35% 29.92 in 10.0 mi NNW 6.9 mph - N/A   Clear
5:15 PM 75.2 °F 48.2 °F 38% 29.93 in 10.0 mi NW 4.6 mph - N/A   Clear
5:35 PM 76.1 °F 48.6 °F 38% 29.93 in 10.0 mi NW 6.9 mph - N/A   Clear
5:55 PM 75.9 °F 46.4 °F 35% 29.93 in 10.0 mi NNW 8.1 mph - N/A   Clear
6:15 PM 74.3 °F 47.1 °F 38% 29.93 in 10.0 mi NW 6.9 mph - N/A   Clear
6:35 PM 73.6 °F 48.9 °F 42% 29.94 in 10.0 mi NW 3.5 mph - N/A   Clear
6:55 PM 72.7 °F 49.8 °F 44% 29.94 in 10.0 mi West 4.6 mph - N/A   Clear
7:15 PM 72.1 °F 50.2 °F 46% 29.94 in 10.0 mi WNW 4.6 mph - N/A   Clear
7:35 PM 72.7 °F 51.1 °F 47% 29.95 in 10.0 mi WNW 4.6 mph - N/A   Clear
7:55 PM 71.2 °F 52.0 °F 51% 29.95 in 10.0 mi West 3.5 mph - N/A   Clear
8:15 PM 68.9 °F 52.3 °F 55% 29.96 in 10.0 mi WNW 4.6 mph - N/A   Clear
8:35 PM 65.7 °F 53.4 °F 65% 29.96 in 10.0 mi Calm Calm - N/A   Clear
8:55 PM 61.5 °F 53.4 °F 75% 29.97 in 10.0 mi Calm Calm - N/A   Clear
9:15 PM 58.6 °F 52.9 °F 81% 29.98 in 10.0 mi Calm Calm - N/A   Clear
9:35 PM 56.7 °F 53.6 °F 89% 29.98 in 10.0 mi Calm Calm - N/A   Clear
9:55 PM 55.2 °F 54.1 °F 96% 29.99 in 10.0 mi Calm Calm - N/A   Clear
10:15 PM 54.3 °F 53.4 °F 97% 29.99 in 10.0 mi Calm Calm - N/A   Clear
10:35 PM 53.1 °F 52.7 °F 99% 29.99 in 10.0 mi Calm Calm - N/A   Clear
10:55 PM 52.2 °F 52.2 °F 100% 29.99 in 10.0 mi Calm Calm - N/A   Clear
11:15 PM 50.9 °F 50.5 °F 99% 30.00 in 10.0 mi Calm Calm - N/A   Clear
11:35 PM 50.9 °F 50.7 °F 99% 30.01 in 10.0 mi Calm Calm - N/A   Clear
11:55 PM 50.0 °F 50.0 °F 100% 30.01 in 10.0 mi Calm Calm - N/A   Clear